This is the latest recevied weather packets stored in our database for station/object KO6HRZ. If no packets are shown the sender has not sent any weather packets the latest 10 day(s).
| Time | Temp. | Humidity | Pressure | Rain* | Wind** | Luminosity | Snow |
|---|---|---|---|---|---|---|---|
| 1788646440 | 30.56° C | 35% | 1011.8 hPa | 0 mm | - | 646 W/m² | - |
| 1788645838 | 29.44° C | 36% | 1011.8 hPa | 0 mm | - | 679 W/m² | - |
| 1788645233 | 29.44° C | 33% | 1012 hPa | 0 mm | - | 687 W/m² | - |
| 1788644630 | 29.44° C | 37% | 1012.1 hPa | 0 mm | - | 693 W/m² | - |
| 1788644027 | 29.44° C | 34% | 1012 hPa | 0 mm | - | 694 W/m² | - |
| 1788643428 | 28.89° C | 35% | 1012.3 hPa | 0 mm | - | 705 W/m² | - |
| 1788642823 | 29.44° C | 35% | 1012.4 hPa | 0 mm | - | 713 W/m² | - |
| 1788642219 | 30° C | 35% | 1012.3 hPa | 0 mm | - | 714 W/m² | - |
| 1788641619 | 28.33° C | 35% | 1012.5 hPa | 0 mm | - | 684 W/m² | - |
| 1788641015 | 28.33° C | 39% | 1012.5 hPa | 0 mm | - | 736 W/m² | - |
| 1788640415 | 27.78° C | 40% | 1012.5 hPa | 0 mm | - | 876 W/m² | - |
| 1788639811 | 27.78° C | 39% | 1012.5 hPa | 0 mm | - | 254 W/m² | - |
| 1788639208 | 28.33° C | 42% | 1012.6 hPa | 0 mm | - | 722 W/m² | - |
| 1788638604 | 27.78° C | 44% | 1012.7 hPa | 0 mm | - | 263 W/m² | - |
| 1788638003 | 27.78° C | 44% | 1012.8 hPa | 0 mm | - | 720 W/m² | - |
| 1788637398 | 27.22° C | 43% | 1013 hPa | 0 mm | - | 737 W/m² | - |
| 1788636799 | 27.22° C | 45% | 1013 hPa | 0 mm | - | 680 W/m² | - |
| 1788636196 | 26.67° C | 45% | 1013.1 hPa | 0 mm | - | 670 W/m² | - |
| 1788635594 | 26.67° C | 46% | 1013.2 hPa | 0 mm | - | 656 W/m² | - |
| 1788634993 | 25.56° C | 48% | 1013.3 hPa | 0 mm | - | 645 W/m² | - |
| 1788634393 | 26.67° C | 48% | 1013.3 hPa | 0 mm | - | 622 W/m² | - |
| 1788633791 | 25.56° C | 49% | 1013.4 hPa | 0 mm | - | 592 W/m² | - |
| 1788633191 | 24.44° C | 54% | 1013.4 hPa | 0 mm | - | 558 W/m² | - |
| 1788632591 | 23.89° C | 54% | 1013.4 hPa | 0 mm | - | 543 W/m² | - |
| 1788631986 | 23.89° C | 55% | 1013.3 hPa | 0 mm | - | 535 W/m² | - |
* Rain latest hour (hover to see other rain measurements)
** Current wind speed in m/s (hover to see current wind gust speed)